This is the latest recevied weather packets stored in our database for station/object K1TTC. If no packets are shown the sender has not sent any weather packets the latest 10 day(s).
| Time | Temp. | Humidity | Pressure | Rain* | Wind** | Luminosity | Snow |
|---|---|---|---|---|---|---|---|
| 1788571922 | 21.67° C | 58% | 1011.2 hPa | 0 mm | - | 0 W/m² | - |
| 1788571323 | 21.67° C | 57% | 1011.2 hPa | 0 mm | - | 0 W/m² | - |
| 1788570722 | 22.22° C | 57% | 1011.2 hPa | 0 mm | - | 0 W/m² | - |
| 1788570121 | 22.22° C | 56% | 1011.2 hPa | 0 mm | - | 0 W/m² | - |
| 1788569521 | 22.22° C | 56% | 1011.2 hPa | 0 mm | - | 0 W/m² | - |
| 1788568921 | 22.78° C | 56% | 1011 hPa | 0 mm | - | 0 W/m² | - |
| 1788568321 | 22.78° C | 55% | 1011.1 hPa | 0 mm | - | 0 W/m² | - |
| 1788567721 | 22.78° C | 55% | 1011.1 hPa | 0 mm | - | 0 W/m² | - |
| 1788567121 | 23.33° C | 54% | 1011.1 hPa | 0 mm | - | 0 W/m² | - |
| 1788566522 | 23.89° C | 55% | 1011 hPa | 0 mm | - | 0 W/m² | - |
| 1788565918 | 24.44° C | 54% | 1010.8 hPa | 0 mm | - | 0 W/m² | - |
| 1788565319 | 25° C | 53% | 1010.7 hPa | 0 mm | - | 0 W/m² | - |
| 1788564717 | 25° C | 52% | 1010.7 hPa | 0 mm | - | 0 W/m² | - |
| 1788564116 | 25.56° C | 51% | 1010.4 hPa | 0 mm | - | 0 W/m² | - |
| 1788563515 | 25.56° C | 50% | 1010.1 hPa | 0 mm | - | 0 W/m² | - |
| 1788562916 | 26.11° C | 48% | 1010.3 hPa | 0 mm | - | 5 W/m² | - |
| 1788562317 | 26.11° C | 48% | 1010.3 hPa | 0 mm | - | 18 W/m² | - |
| 1788561716 | 26.67° C | 48% | 1010.2 hPa | 0 mm | - | 23 W/m² | - |
| 1788561118 | 26.67° C | 47% | 1010.1 hPa | 0 mm | - | 25 W/m² | - |
| 1788560517 | 26.67° C | 47% | 1010.1 hPa | 0 mm | - | 40 W/m² | - |
| 1788559916 | 26.67° C | 47% | 1010 hPa | 0 mm | - | 56 W/m² | - |
| 1788559316 | 26.67° C | 48% | 1010 hPa | 0 mm | - | 69 W/m² | - |
| 1788558713 | 26.67° C | 49% | 1009.9 hPa | 0 mm | - | 88 W/m² | - |
| 1788558114 | 26.67° C | 48% | 1010 hPa | 0 mm | - | 63 W/m² | - |
| 1788557513 | 26.67° C | 47% | 1010.2 hPa | 0 mm | - | 56 W/m² | - |
* Rain latest hour (hover to see other rain measurements)
** Current wind speed in m/s (hover to see current wind gust speed)